Flag for U.S.A. Weather past 2 weeks in Boulder, Colorado, U.S.A.

Now
50 °F

Clear.


Feels Like: 50 °F
Forecast: 49 / 76 °F
Wind: No wind

Location: Broomfield / Jeffco

Current Time: Oct 20, 2014 at 6:11:08 AM

Latest Report: Oct 20, 2014 at 5:34 AM


Visibility: 10 mi

Pressure: 30.17 "Hg

Humidity: 50%

Dew point: 32 °F

Location of BoulderLocation

Historic Weather in Boulder — Graph

°F

Boulder temperature yesterday

Maximum temperature yesterday: 73 °F (at 2:47 PM)
Minimum temperature yesterday: 50 °F (at 1:35 AM)
Average temperature yesterday: 58 °F

Past Weeks' High & Low Weather Summary

 TemperatureHumidityPressure
High82 °F (Oct 7, 4:55 PM)100% (Oct 10, 2:55 AM)30.27 "Hg (Oct 10, 2:55 AM)
Low37 °F (Oct 13, 4:35 AM)15% (Oct 7, 2:50 PM)29.72 "Hg (Oct 12, 7:45 AM)
Average55 °F49%30.09 "Hg
* Reported Oct 5 4:14 AM — Oct 20 4:55 AM, Boulder, Weather by CustomWeather, © 2014

Note: Actual official high and low records may vary slightly from our data, if they occured in-between our weather recording intervals... More about our weather records

Advertising

Boulder weather history for previous 24 hours

 ConditionsComfort  
Time TempWeatherWind HumidityBarometerVisibility
4:55 AM
Oct 20
50 °FClear.No wind50%30.17 "Hg10 mi
4:35 AM46 °FClear.3 mph57%30.17 "Hg10 mi
4:14 AM50 °FClear.3 mph50%30.17 "Hg10 mi
3:55 AM46 °FClear.No wind57%30.17 "Hg10 mi
3:35 AM48 °FClear.No wind54%30.17 "Hg10 mi
3:15 AM50 °FClear.No wind50%30.17 "Hg10 mi
2:55 AM50 °FClear.6 mph50%30.17 "Hg10 mi
2:34 AM54 °FClear.3 mph44%30.18 "Hg7 mi
2:15 AM54 °FClear.No wind44%30.18 "Hg10 mi
1:55 AM54 °FClear.No wind54%30.18 "Hg10 mi
1:34 AM54 °FClear.No wind47%30.19 "Hg10 mi
1:15 AM52 °FClear.No wind54%30.19 "Hg7 mi
12:55 AM52 °FClear.5 mph50%30.19 "Hg10 mi
12:35 AM57 °FClear.No wind39%30.18 "Hg10 mi
11:55 PM
Oct 19
57 °FClear.No wind39%30.18 "Hg10 mi
11:35 PM57 °FClear.3 mph39%30.18 "Hg10 mi
8:47 PM63 °FPassing clouds.No wind32%30.16 "Hg30 mi
7:47 PM64 °FPassing clouds.No wind28%30.16 "Hg30 mi
6:51 PM68 °FPassing clouds.No wind24%30.14 "Hg35 mi
5:48 PM68 °FPassing clouds.5 mph26%30.13 "Hg35 mi
4:47 PM72 °FScattered clouds.7 mph22%30.12 "Hg50 mi
3:47 PM72 °FPassing clouds.5 mph22%30.12 "Hg40 mi
2:47 PM73 °FScattered clouds.6 mph20%30.11 "Hg40 mi
1:47 PM72 °FPassing clouds.7 mph22%30.13 "Hg30 mi
12:55 PM72 °FPassing clouds.8 mph22%30.14 "Hg30 mi
11:47 AM72 °FScattered clouds.6 mph23%30.16 "Hg30 mi
10:55 AM68 °FScattered clouds.6 mph33%30.15 "Hg30 mi
9:47 AM59 °FScattered clouds.No wind48%30.15 "Hg30 mi
8:50 AM55 °FScattered clouds.No wind41%30.15 "Hg30 mi
7:47 AM55 °FPassing clouds.No wind38%30.13 "Hg30 mi
6:45 AM54 °FPassing clouds.No wind41%30.11 "Hg30 mi
Weather by CustomWeather, © 2014

See weather overviewHow to use our weather pages